Cloud_Cover
81 7 6 6 5 1 3 1 5 22 6 44 57 42 5 5 5 1 25 5 5 5 5 66 5 0 0 5 90 100 96 100 100 100 100 100 100 100 100 100 100 100 100 99
97 5 5 5 5 2 5 71 19 4 72 24 53 6 5 4 4 5 12 5 15 5 1 51 5 25 16 48 100 100 100 100 98 100 100 100 100 100 100 100 59 5 19 2
42 64 5 4 7 4 5 16 5 5 12 5 59 98 5 5 5 5 3 3 5 5 5 5 8 29 88 46 59 100 100 100 100 100 100 95 100 100 100 100 46 5 2 0
100 18 5 5 4 5 5 64 38 66 83 17 52 96 5 5 5 4 38 13 6 98 86 11 50 62 66 2 0 15 100 100 100 100 100 100 98 100 100 98 26 4 2 0
18 5 5 5 5 9 56 87 64 62 13 5 5 5 5 2 92 84 76 96 93 99 97 76 100 100 99 100 37 0 3 100 100 100 100 100 100 100 100 100 3 0 0 0
40 5 5 5 5 7 65 24 14 76 13 7 30 38 90 37 100 78 100 100 100 100 100 100 100 96 95 82 78 81 0 0 90 95 100 100 7 24 20 0 0 0 0 0
5 5 5 24 5 5 5 10 28 92 82 37 32 43 96 100 100 100 100 100 100 100 55 89 96 83 100 100 100 100 4 5 4 5 6 16 2 0 0 0 0 0 0 0
9 5 5 11 46 4 5 6 80 74 91 5 76 67 99 100 100 100 100 98 100 88 66 100 33 29 5 13 5 9 4 5 15 5 4 0 0 0 0 4 2 0 5 3
6 5 5 5 5 5 5 47 77 94 93 12 34 42 100 100 100 100 97 98 100 100 100 37 44 10 1 1 0 6 8 84 100 100 68 60 1 0 4 5 11 10 95 14
5 5 4 5 42 10 5 23 85 98 97 5 11 100 88 100 100 100 100 100 100 72 52 73 95 40 43 100 100 100 100 100 100 100 100 82 0 0 89 100 100 100 99 98
6 5 5 5 10 76 51 82 92 82 100 33 1 12 38 98 96 100 80 9 53 56 88 83 98 100 100 100 100 100 100 100 100 100 100 68 9 24 33 84 100 100 100 100
20 5 5 14 90 52 96 100 99 90 100 14 5 5 5 4 15 80 100 8 87 89 70 98 100 100 100 100 100 100 100 100 100 100 83 8 12 90 98 75 100 100 100 100
98 12 5 29 87 82 99 100 100 100 100 100 94 10 4 0 3 4 5 5 23 97 100 100 100 100 100 100 100 100 100 100 100 100 100 100 93 87 100 100 100 100 96 100
27 5 5 5 97 100 98 100 100 100 100 94 42 42 64 5 3 0 0 3 22 100 100 100 100 100 100 100 100 100 100 100 100 100 100 92 96 100 100 96 94 100 100 90
88 82 5 99 95 97 98 100 100 100 97 96 31 58 71 5 5 5 4 5 99 100 100 100 100 100 100 100 100 100 100 100 100 100 100 100 100 100 100 100 100 100 100 100
100 58 5 6 71 100 99 100 91 11 99 100 71 38 66 34 5 4 21 56 78 100 100 100 100 100 100 100 100 100 100 100 100 100 100 100 100 100 100 100 100 100 100 100
100 100 81 60 99 86 100 100 92 77 97 100 93 12 46 32 68 10 50 98 94 99 100 100 100 100 100 100 100 100 100 99 100 100 100 100 100 100 100 100 100 100 100 100
100 11 11 100 100 99 100 100 100 100 100 100 99 73 82 99 100 100 100 100 100 100 100 100 100 100 100 99 100 100 74 37 89 100 100 100 100 100 100 100 100 95 98 100
77 80 100 100 100 100 100 100 100 99 85 83 100 95 96 100 100 100 100 100 100 100 100 100 100 97 100 100 100 100 100 100 100 100 100 100 100 100 100 100 100 99 100 100
100 100 100 100 100 100 100 100 100 100 100 100 100 57 98 100 100 100 100 100 100 100 100 100 100 100 100 100 100 99 100 100 100 100 100 100 91 100 100 100 100 100 100 100
100 100 100 100 100 100 100 100 100 99 100 100 79 68 100 100 100 100 100 100 100 100 100 100 100 100 100 100 100 100 100 100 100 100 100 100 100 100 100 100 100 100 100 100
100 100 100 100 100 100 100 98 100 100 70 98 100 100 100 100 100 100 100 100 100 100 100 100 100 100 100 100 100 100 100 100 100 100 100 100 100 100 100 100 100 99 100 100
100 100 100 100 100 100 100 100 100 100 100 100 100 100 100 100 100 100 100 100 100 100 100 100 100 100 100 100 100 100 99 91 46 13 26 73 98 97 98 99 100 100 100 100
100 100 100 100 100 100 100 100 77 45 100 100 100 100 100 100 100 100 100 100 100 100 97 85 100 100 100 100 100 100 100 88 21 42 65 81 96 85 82 92 92 92 93 91
100 100 100 100 100 100 100 100 42 73 100 100 100 100 100 100 100 100 100 100 100 100 65 99 100 96 66 72 81 28 5 28 18 68 95 96 78 72 79 95 88 89 87 86
98 100 100 100 100 100 100 100 100 99 100 100 100 100 100 100 100 100 100 100 100 98 98 99 99 72 91 93 78 79 61 56 70 100 98 91 89 93 96 77 76 89 85 74
100 100 100 100 100 100 100 100 100 100 100 100 100 100 100 100 100 100 100 99 100 100 98 84 92 58 100 99 86 99 61 52 77 58 59 79 63 84 72 74 98 81 83 74